FW8630 Weather Reports


Display with metric or nautical units.
time (UTC)temp
F
wind
direction
speed
MPH
gust
MPH
rain 1hr
in
rain 24hr
in
rain mn
in
humidity
%
barometer
mb
20260905021559 58 246 4.0 12.0 0.00 0.09 0.00 89 997.3
20260905020057 58 275 3.0 11.0 0.00 0.10 0.00 89 997.1
20260905014559 58 232 3.0 11.0 0.00 0.10 0.00 89 997.2
20260905013059 59 267 1.0 13.0 0.00 0.10 0.00 88 997.1
20260905011553 59 269 5.0 13.0 0.00 0.10 0.00 88 997.2
20260905003038 58 263 2.0 9.0 0.00 0.10 0.00 88 996.9
20260904234522 59 280 1.0 10.0 0.00 0.12 0.00 87 996.9
20260904233020 58 277 2.0 7.0 0.00 0.12 0.00 87 997.0
20260904231519 58 279 1.0 10.0 0.00 0.12 0.00 87 996.9
20260904230029 58 235 1.0 8.0 0.00 0.12 0.00 87 997.0
20260904224525 58 225 1.0 9.0 0.00 0.12 0.00 87 997.1
20260904223015 58 284 2.0 10.0 0.00 0.12 0.00 86 997.1
20260904221519 58 222 2.0 9.0 0.00 0.12 0.00 86 997.2
20260904220011 58 275 4.0 10.0 0.00 0.13 0.12 87 997.1
20260904214517 58 252 4.0 10.0 0.00 0.13 0.12 87 997.3
20260904213010 58 252 3.0 7.0 0.00 0.13 0.12 87 997.3
20260904211508 58 272 3.0 9.0 0.00 0.13 0.12 87 997.2
20260904210008 58 248 2.0 8.0 0.01 0.14 0.12 88 997.3
20260904204511 58 257 2.0 5.0 0.02 0.14 0.12 88 997.3
20260904203007 58 244 2.0 6.0 0.04 0.14 0.12 88 997.4
20260904201503 58 240 2.0 8.0 0.05 0.14 0.12 88 997.7
20260904200006 58 244 2.0 10.0 0.04 0.13 0.11 89 997.8
20260904194503 58 244 2.0 8.0 0.03 0.13 0.10 90 997.8
20260904193002 58 254 2.0 5.0 0.01 0.10 0.08 91 997.9
20260904191559 58 238 3.0 9.0 0.00 0.09 0.07 93 998.1
20260904190059 59 233 4.0 9.0 0.00 0.09 0.07 93 998.2
20260904184557 59 243 4.0 9.0 0.00 0.09 0.07 93 998.2
20260904183113 59 257 4.0 9.0 0.00 0.09 0.07 92 998.3
20260904181556 59 205 5.0 10.0 0.00 0.09 0.07 92 998.3
20260904180057 59 248 3.0 9.0 0.00 0.14 0.07 92 998.4
20260904174555 59 221 3.0 9.0 0.00 0.14 0.07 91 998.5
20260904173054 59 236 3.0 9.0 0.00 0.14 0.07 90 998.5
20260904171554 59 288 3.0 8.0 0.00 0.14 0.07 91 998.4
20260904170053 59 252 3.0 9.0 0.00 0.17 0.07 92 998.6
20260904164550 59 239 3.0 10.0 0.00 0.17 0.07 91 998.8
20260904163055 60 260 3.0 8.0 0.00 0.17 0.07 91 998.8
20260904161547 60 241 3.0 8.0 0.00 0.17 0.07 91 999.1
20260904160058 60 248 3.0 9.0 0.00 0.18 0.07 90 999.0
20260904154548 61 252 3.0 8.0 0.00 0.18 0.07 90 999.2
20260904153052 61 233 3.0 8.0 0.00 0.18 0.07 89 999.5
20260904151542 61 221 2.0 7.0 0.00 0.18 0.07 88 999.5
20260904150052 61 205 3.0 7.0 0.00 0.19 0.07 88 999.7
20260904144539 61 227 2.0 7.0 0.00 0.19 0.07 87 999.8
20260904143039 61 243 3.0 9.0 0.00 0.19 0.07 86 1000.1
20260904141537 61 238 2.0 6.0 0.00 0.19 0.07 87 1000.2
20260904140034 61 248 3.0 7.0 0.00 0.19 0.07 86 1000.5
20260904134534 61 261 4.0 11.0 0.00 0.19 0.07 85 1000.7
20260904133031 61 230 3.0 9.0 0.00 0.19 0.07 86 1000.8
20260904131529 61 241 4.0 12.0 0.00 0.19 0.07 86 1000.9
20260904130041 60 250 3.0 9.0 0.00 0.19 0.07 86 1001.0
20260904124528 60 238 2.0 10.0 0.00 0.19 0.07 88 1001.1
20260904123026 60 246 3.0 8.0 0.00 0.19 0.07 88 1001.2
20260904121524 59 252 3.0 8.0 0.00 0.19 0.07 87 1001.5
20260904120033 59 251 3.0 8.0 0.00 0.19 0.07 87 1001.7
20260904114525 59 238 3.0 8.0 0.00 0.19 0.07 86 1001.9
20260904113020 59 215 3.0 10.0 0.00 0.19 0.07 88 1001.9
20260904111518 59 232 3.0 10.0 0.00 0.19 0.07 91 1001.9
20260904110017 58 252 1.0 8.0 0.01 0.19 0.07 92 1002.0
20260904104524 59 277 2.0 7.0 0.01 0.19 0.07 92 1002.1
20260904103017 59 267 1.0 4.0 0.01 0.19 0.07 92 1002.0
20260904101515 59 268 1.0 6.0 0.02 0.19 0.07 92 1002.0
20260904100015 59 265 3.0 9.0 0.01 0.18 0.06 92 1002.3
20260904094513 59 262 1.0 5.0 0.01 0.18 0.06 92 1002.3
20260904093013 58 243 3.0 7.0 0.01 0.18 0.06 92 1002.5
20260904091519 58 237 2.0 5.0 0.00 0.17 0.06 92 1002.4
20260904090011 58 242 2.0 9.0 0.00 0.17 0.06 92 1002.6
20260904084511 58 246 2.0 5.0 0.00 0.17 0.06 92 1002.5
20260904083011 58 246 1.0 7.0 0.00 0.17 0.06 92 1002.6
20260904081511 58 264 1.0 7.0 0.02 0.17 0.06 92 1002.5
20260904080011 58 241 1.0 7.0 0.03 0.17 0.06 92 1002.5
20260904074509 59 259 2.0 6.0 0.03 0.17 0.06 92 1002.4
20260904073007 59 265 1.0 7.0 0.03 0.17 0.06 92 1002.6
20260904071509 59 257 1.0 5.0 0.02 0.16 0.04 92 1002.5
20260904070008 59 290 1.0 7.0 0.00 0.14 0.02 92 1002.4
20260904064504 58 248 0.0 4.0 0.00 0.14 0.02 92 1002.7
20260904063003 58 208 1.0 6.0 0.00 0.14 0.02 93 1002.4
20260904061602 58 245 1.0 4.0 0.00 0.14 0.02 93 1002.6
20260904060002 58 274 1.0 4.0 0.00 0.14 0.02 93 1002.6
20260904054557 0 321 0.0 2.0 0.00 0.14 0.02 1002.6
20260904053053 0 327 0.0 1.0 0.00 0.14 0.02 1002.6
20260904051551 57 327 0.0 0.0 0.00 0.14 0.02 92 1002.6
20260904050049 57 327 0.0 0.0 0.00 0.14 0.02 92 1002.8
20260904044553 0 327 0.0 1.0 0.00 0.14 0.02 1002.9
20260904043100 0 327 0.0 2.0 0.00 0.14 0.02 1002.9
20260904041536 0 355 0.0 0.0 0.00 0.14 0.02 1002.9
20260904040032 0 355 0.0 0.0 0.00 0.14 0.02 1002.9
20260904034527 0 355 0.0 0.0 0.00 0.14 0.02 1003.0
20260904033024 0 355 0.0 0.0 0.00 0.14 0.02 1002.9
20260904031518 0 355 0.0 0.0 0.00 0.14 0.02 1002.8
20260904030020 0 355 0.0 0.0 0.00 0.14 0.02 1002.7
20260904024514 57 355 0.0 0.0 0.00 0.14 0.02 91 1002.7
20260904023012 57 355 0.0 0.0 0.01 0.14 0.02 91 1002.9